Location: McFarlands Corners
(41.4117°N, 81.3382°W)
Time: 17:08:10
(UTC+00:00)

SR - Pass Details

Date: 20 February 2026
Orbit: 572 x 849 km, 66.7° (Epoch: 12 March)

Event Time Altitude Azimuth Distance (km) Brightness Sun altitude
Rises 11:01:17 0° 267° (W) 2,796 - -14.2°
Reaches altitude 10° 11:05:05 10° 302° (WNW) 1,937 - -13.5°
Exits shadow 11:06:11 11° 317° (NW) 1,867 ? -13.3°
Maximum altitude 11:06:30 11° 321° (NW) 1,867 ? -13.2°
Drops below altitude 10° 11:07:56 10° 340° (NNW) 1,977 ? -12.9°
Sets 11:11:57 0° 15° (NNE) 2,955 ? -12.2°
